Airfield :
LOGIN :

Register | Disclaimer

   EN    FR    IT 

 










Legend :    VFR   Marginal VFR   IFR   Intensive IFR   Very Intensive IFR
Visi :
Ceiling :
>= 8 km
>= 3000ft
5 to 8 km
1000 to 3000 ft
1500m to 5 km
500 to 1000 ft
800 to 1500m
200 to 500 ft
< 800m
< 200 ft
Symbols :   Thunderstorms  Fog  Heavy snow  Heavy precipitations  Wind > 20 kt
SIGMETs :     Misc.  Thunderstorms  Icing  Turbulence  Mountain Waves  Volcanic Ashes







- Airport Elevation : 2697 ft
- IATA code : BLJ


DABT - Batna

CURRENT METAR :
  • 161100Z 36004KT CAVOK 10/00 Q1021

EXPIRED METARs :
  • 161000Z 35003KT CAVOK 07/01 Q1022
  • 160900Z 00000KT CAVOK 03/M01 Q1022

TAF TAF DABT
Valid from the 16 at 12:00 until the 17 at 12:00 UTC


161100Z 1612/1712 26008KT 9999 SCT030
TEMPO 1612/1620 FEW026TCU
TEMPO 1700/1710 2000 BR BKN008
TEMPO 1703/1709 0600 FG BKN003
PROB30
TEMPO 1705/1708 0100 FZFG BKN001
No reported NOTAMs for that airfield.



MET'MAP, your aeronautical weather chart ! - Copyright ORBIFLY December 2007 - Disclaimer

ORBIFLY MET'MAP TEAM :

Programming & Development : Alexandra Zaïnal
Concept & Development : Baudouin d'Aumeries
Co-Development & Prog : Marc-Olivier Méhu
Technical & hardware support : Manuel Goepfert

Contact : metmap@orbifly.com




SOURCES & CREDITS :

   NOAA